Weather History for Budapest Ferihegy, Hungary

Change the Weather History Date:

Tuesday, November 6, 2012

  Actual Average Record
Temperature  
Mean Temperature 46 °F -  
Max Temperature 55 °F 44 °F 64 °F (2008)
Min Temperature 37 °F 31 °F 26 °F (2007)
Degree Days  
Heating Degree Days 19    
Moisture  
Dew Point 36 °F    
Average Humidity 70    
Maximum Humidity 93    
Minimum Humidity 44    
Precipitation  
Precipitation 0.00 in - - ()
Sea Level Pressure  
Sea Level Pressure 29.96 in    
Wind  
Wind Speed 9 mph ()    
Max Wind Speed 22 mph    
Max Gust Speed -    
Visibility 6.2 miles    
Events      
Averages and records for this station are not official NWS values.
T = Trace of Precipitation, MM = Missing Value Source: Averaged Metar Reports

Daily Weather History Graph

Daily Weather History Graph

Search for Another Location

Airport:

Trip Planner

Search our weather history database for the weather conditions in past years. The results will help you decide how hot, cold, wet, or windy it might be!

Date:

Astronomy

Nov. 06, 2012 Rise Set
Actual Time 6:34 AM CET 4:18 PM CET
Civil Twilight 6:01 AM CET 4:50 PM CET
Nautical Twilight 5:25 AM CET 5:27 PM CET
Astronomical Twilight 4:49 AM CET 6:03 PM CET
Moon 10:42 PM CET (11/6) 12:14 PM CET (11/6)
Length of Visible Light 10h 48m
Length of Day
9h 43m
Waning Gibbous, 56% of the Moon is Illuminated
Nov 6
Waning Gibbous
Nov 7
Last Quarter
Nov 13
New
Nov 20
First Quarter
Nov 28
Full

Hourly Weather History & Observations

Time (CET) Temp. Windchill Dew Point Humidity Pressure Visibility Wind Dir Wind Speed Gust Speed Precip Events Conditions
12:00 AM 44.6 °F 37.8 °F 37.4 °F 76% 29.80 in - West 15.0 mph - N/A   Clear
12:30 AM 42.8 °F 37.0 °F 37.4 °F 81% 29.80 in - West 10.4 mph - N/A   Clear
1:00 AM 41.0 °F 37.1 °F 35.6 °F 81% 29.80 in - West 5.8 mph - N/A   Clear
1:30 AM 41.0 °F - 37.4 °F 87% 29.80 in - Variable 2.3 mph - N/A   Clear
2:00 AM 41.0 °F 37.1 °F 37.4 °F 87% 29.83 in - SSW 5.8 mph - N/A   Clear
3:00 AM 39.2 °F 34.2 °F 37.4 °F 93% 29.83 in - SW 6.9 mph - N/A   Clear
3:30 AM 39.2 °F 37.0 °F 37.4 °F 93% 29.83 in 6.2 mi Variable 3.5 mph - N/A   Partly Cloudy
4:00 AM 41.0 °F 37.1 °F 39.2 °F 93% 29.86 in 6.2 mi SW 5.8 mph - N/A   Scattered Clouds
4:30 AM 41.0 °F 35.2 °F 37.4 °F 87% 29.86 in 6.2 mi SW 9.2 mph - N/A   Scattered Clouds
5:00 AM 41.0 °F 35.2 °F 37.4 °F 87% 29.86 in 6.2 mi SW 9.2 mph - N/A   Partly Cloudy
5:30 AM 41.0 °F 35.8 °F 37.4 °F 87% 29.86 in 6.2 mi West 8.1 mph - N/A   Partly Cloudy
6:00 AM 37.4 °F - 35.6 °F 93% 29.89 in - Variable 2.3 mph - N/A   Clear
6:30 AM 37.4 °F 34.9 °F 35.6 °F 93% 29.89 in - Variable 3.5 mph - N/A   Clear
7:00 AM 37.4 °F - 35.6 °F 93% 29.89 in - Variable 1.2 mph - N/A   Clear
7:30 AM 37.4 °F 34.9 °F 35.6 °F 93% 29.92 in - Variable 3.5 mph - N/A   Clear
8:00 AM 42.8 °F - 39.2 °F 87% 29.92 in - Variable 1.2 mph - N/A   Clear
8:30 AM 44.6 °F 42.2 °F 39.2 °F 81% 29.95 in - SW 4.6 mph - N/A   Clear
9:00 AM 46.4 °F 44.3 °F 39.2 °F 76% 29.95 in - WSW 4.6 mph - N/A   Clear
9:30 AM 51.8 °F - 37.4 °F 58% 29.95 in - West 13.8 mph - N/A   Clear
10:00 AM 51.8 °F - 37.4 °F 58% 29.95 in - West 15.0 mph - N/A   Clear
10:30 AM 53.6 °F - 35.6 °F 51% 29.95 in - WNW 17.3 mph - N/A   Clear
11:00 AM 53.6 °F - 35.6 °F 51% 29.95 in - WNW 21.9 mph - N/A   Clear
11:30 AM 55.4 °F - 33.8 °F 44% 29.95 in - West 18.4 mph - N/A   Clear
12:00 PM 55.4 °F - 33.8 °F 44% 29.95 in - WSW 15.0 mph - N/A   Clear
12:30 PM 55.4 °F - 33.8 °F 44% 29.95 in - West 19.6 mph - N/A   Clear
1:00 PM 53.6 °F - 35.6 °F 51% 29.95 in - West 19.6 mph - N/A   Clear
1:30 PM 53.6 °F - 33.8 °F 47% 29.95 in 6.2 mi West 17.3 mph - N/A   Scattered Clouds
2:00 PM 53.6 °F - 33.8 °F 47% 29.95 in 6.2 mi West 19.6 mph - N/A   Mostly Cloudy
2:30 PM 51.8 °F - 33.8 °F 50% 29.95 in 6.2 mi West 19.6 mph - N/A   Mostly Cloudy
3:00 PM 51.8 °F - 33.8 °F 50% 29.98 in 6.2 mi West 13.8 mph - N/A   Mostly Cloudy
3:30 PM 51.8 °F - 33.8 °F 50% 29.98 in 6.2 mi West 11.5 mph - N/A   Mostly Cloudy
4:00 PM 50.0 °F - 35.6 °F 58% 29.98 in 6.2 mi West 16.1 mph - N/A   Mostly Cloudy
4:30 PM 50.0 °F - 37.4 °F 62% 30.01 in 6.2 mi West 12.7 mph - N/A   Mostly Cloudy
5:00 PM 50.0 °F - 35.6 °F 58% 30.01 in - West 12.7 mph - N/A   Clear
5:30 PM 48.2 °F - 37.4 °F 66% 30.01 in 6.2 mi West 15.0 mph - N/A   Mostly Cloudy
6:00 PM 48.2 °F - 37.4 °F 66% 30.04 in 6.2 mi West 9.2 mph - N/A   Scattered Clouds
6:30 PM 46.4 °F 40.4 °F 35.6 °F 66% 30.04 in - WNW 13.8 mph - N/A   Clear
7:00 PM 46.4 °F 41.1 °F 35.6 °F 66% 30.06 in - West 11.5 mph - N/A   Clear
7:30 PM 44.6 °F 38.4 °F 33.8 °F 66% 30.06 in - WNW 12.7 mph - N/A   Clear
8:00 PM 44.6 °F 38.1 °F 33.8 °F 66% 30.06 in - WNW 13.8 mph - N/A   Clear
8:30 PM 44.6 °F 40.2 °F 33.8 °F 66% 30.09 in - West 8.1 mph - N/A   Clear
9:00 PM 42.8 °F 38.6 °F 33.8 °F 70% 30.09 in - West 6.9 mph - N/A   Clear
9:30 PM 42.8 °F 41.1 °F 32.0 °F 66% 30.09 in - Variable 3.5 mph - N/A   Clear
10:00 PM 41.0 °F 35.8 °F 33.8 °F 76% 30.09 in - WSW 8.1 mph - N/A   Clear
10:30 PM 41.0 °F 36.4 °F 33.8 °F 76% 30.12 in - WSW 6.9 mph - N/A   Clear
11:00 PM 39.2 °F 35.9 °F 32.0 °F 75% 30.12 in - WSW 4.6 mph - N/A   Clear
11:30 PM 39.2 °F 35.9 °F 32.0 °F 75% 30.12 in - WSW 4.6 mph - N/A   Clear